Latest Weather Observations for Richmond

IDN60901

Issued at 2:51 am EST Sunday 5 July 2015 (issued every 10 minutes, with the page automatically refreshed every 10 minutes)

About weather observations | Map of Sydney area stations | Latest observations for Sydney area | Other Formats
Station Details ID: 067105 Name: RICHMOND RAAF Lat: -33.60 Lon: 150.78 Height: 19.0 m
Data from the previous 72 hours. | See also: Recent months at Richmond
Date/Time
EST
Tmp

°C
App
Tmp
°C
Dew
Point
°C
Rel
Hum
%
Delta-T

°C
Wind Press
QNH
hPa
Press
MSL
hPa
Rain
since
9 am
mm
Dir
 
Spd
km/h
Gust
km/h
Spd
kts
Gust
kts
05/02:30am 0.9 -1.0 0.6 98 0.1 CALM 0 0 0 0 1022.0 1022.0 0.0
05/02:08am 1.0 -0.9 0.7 98 0.1 CALM 0 0 0 0 1022.0 1022.0 0.0
05/02:00am 0.8 -1.1 0.5 98 0.1 CALM 0 0 0 0 1022.1 1022.1 0.0
05/01:46am 1.0 -0.9 0.7 98 0.1 CALM 0 0 0 0 1022.2 1022.2 0.0
05/01:30am 1.3 -0.5 1.0 98 0.1 CALM 0 0 0 0 1022.2 1022.2 0.0
05/01:19am 1.9 0.2 1.6 98 0.1 CALM 0 0 0 0 1022.2 1022.2 0.0
05/01:13am 1.7 -0.1 1.4 98 0.1 CALM 0 0 0 0 1022.1 1022.1 0.0
05/01:02am 2.2 0.5 1.9 98 0.1 CALM 0 0 0 0 1022.1 - -
05/01:01am 3.0 - 2.7 98 0.1 - - - - - 1022.1 1022.1 0.0
05/01:00am 3.0 1.4 2.7 98 0.1 CALM 0 0 0 0 1022.1 1022.1 -
05/12:55am 2.6 1.0 2.3 98 0.1 CALM 0 0 0 0 1022.1 - -
05/12:30am 2.5 0.9 2.2 98 0.1 CALM 0 0 0 0 1022.1 1022.1 0.0
05/12:19am 2.6 1.0 2.3 98 0.1 CALM 0 0 0 0 1022.1 1022.1 0.0
05/12:00am 2.9 1.3 2.6 98 0.1 CALM 0 0 0 0 1022.2 1022.2 0.0
 
Date/Time
EST
Tmp

°C
App
Tmp
°C
Dew
Point
°C
Rel
Hum
%
Delta-T

°C
Wind Press
QNH
hPa
Press
MSL
hPa
Rain
since
9 am
mm
Dir
 
Spd
km/h
Gust
km/h
Spd
kts
Gust
kts
04/11:30pm 2.9 1.3 2.5 97 0.2 CALM 0 0 0 0 1022.1 1022.1 0.0
04/11:03pm 3.4 1.9 3.1 98 0.1 CALM 0 0 0 0 1022.3 1022.3 0.0
04/11:00pm 3.4 1.9 3.1 98 0.1 CALM 0 0 0 0 1022.3 1022.3 0.0
04/10:53pm 3.2 1.7 2.8 97 0.2 CALM 0 0 0 0 1022.3 1022.3 0.0
04/10:30pm 3.3 1.8 2.9 97 0.2 CALM 0 0 0 0 1022.2 1022.2 0.0
04/10:00pm 3.9 2.5 3.3 96 0.2 CALM 0 0 0 0 1022.2 1022.2 0.0
04/09:30pm 3.9 2.4 2.9 93 0.4 CALM 0 0 0 0 1022.4 1022.4 0.0
04/09:00pm 5.1 3.9 4.4 95 0.3 CALM 0 0 0 0 1022.5 1022.5 0.0
04/08:30pm 4.6 2.7 2.9 89 0.7 WNW 2 9 1 5 1022.4 1022.4 0.0
04/08:00pm 5.8 3.3 3.8 87 0.8 S 6 9 3 5 1022.3 1022.3 0.0
04/07:30pm 5.7 3.0 3.9 88 0.8 SE 7 17 4 9 1022.1 1022.1 0.0
04/07:00pm 7.3 4.7 4.3 81 1.3 W 7 7 4 4 1021.7 1021.7 0.0
04/06:30pm 7.5 5.1 4.5 81 1.3 W 6 9 3 5 1021.4 1021.4 0.0
04/05:30pm 9.8 8.3 3.1 63 2.9 CALM 0 0 0 0 1021.0 1021.0 0.0
04/05:00pm 11.1 9.6 2.9 57 3.5 CALM 0 0 0 0 1020.7 1020.7 0.0
04/04:30pm 14.4 12.7 2.0 43 5.4 CALM 0 0 0 0 1020.5 1020.5 0.0
04/04:00pm 14.4 11.4 1.7 42 5.5 SSW 7 9 4 5 1020.6 1020.6 0.0
04/03:30pm 14.6 11.3 0.1 37 6.1 SSE 7 11 4 6 1020.2 1020.2 0.0
04/03:00pm 14.5 11.0 1.1 40 5.7 S 9 13 5 7 1020.2 1020.2 0.0
04/02:30pm 14.5 11.1 3.9 49 4.8 S 11 15 6 8 1020.0 1020.0 0.0
04/02:00pm 14.2 11.3 4.5 52 4.5 S 9 13 5 7 1019.7 1019.7 0.0
04/01:30pm 13.9 11.2 3.9 51 4.6 SSW 7 11 4 6 1019.8 1019.8 0.0
04/01:00pm 12.9 10.0 4.6 57 3.8 SSE 9 13 5 7 1020.1 1020.1 0.0
04/12:30pm 11.6 9.3 5.0 64 3.0 SSE 6 9 3 5 1020.6 1020.6 0.0
04/12:00pm 11.1 9.9 4.8 65 2.8 CALM 0 2 0 1 1021.1 1021.1 0.0
04/11:30am 8.7 6.3 4.5 75 1.9 SE 6 7 3 4 1021.7 1021.7 0.0
04/11:00am 6.9 4.7 5.2 89 0.7 ESE 6 9 3 5 1022.3 1022.3 0.0
04/10:30am 5.9 4.1 5.6 98 0.1 SE 4 9 2 5 1022.9 1022.9 0.0
04/10:21am 5.6 2.8 5.3 98 0.1 SE 9 11 5 6 1022.9 1022.9 0.0
04/10:14am 5.5 3.7 5.2 98 0.1 SE 4 11 2 6 1023.1 1023.2 0.0
04/10:00am 5.4 3.5 5.1 98 0.1 ESE 4 9 2 5 1023.1 1023.2 0.0
04/09:57am 4.8 2.8 4.5 98 0.1 ESE 4 7 2 4 1023.2 1023.3 0.0
04/09:48am 4.7 3.5 4.4 98 0.1 CALM 0 0 0 0 1023.2 1023.3 0.0
04/09:30am 3.4 1.2 3.1 98 0.1 WNW 4 7 2 4 1023.4 1023.5 0.0
04/09:25am 3.1 0.4 2.8 98 0.1 WNW 6 7 3 4 1023.4 1023.5 0.0
04/09:00am 2.3 -0.5 2.0 98 0.1 N 6 9 3 5 1023.1 1023.2 0.0
04/08:30am 1.2 -0.6 0.9 98 0.1 CALM 0 0 0 0 1023.3 1023.4 0.0
04/08:00am 0.6 -2.7 0.3 98 0.1 SW 7 11 4 6 1023.3 1023.4 0.0
04/07:30am 0.3 -2.4 0.0 98 0.1 SSW 4 7 2 4 1022.9 1022.9 0.0
04/07:00am 0.0 -2.0 -0.3 98 0.1 CALM 0 0 0 0 1022.9 1022.9 0.0
04/06:30am 0.3 -1.7 0.0 98 0.1 CALM 0 0 0 0 1022.7 1022.7 0.0
04/05:30am 0.4 -1.6 0.1 98 0.1 CALM 0 2 0 1 1022.7 1022.7 0.0
04/05:00am 0.5 -2.8 0.2 98 0.1 SSW 7 11 4 6 1022.6 1022.6 0.0
04/04:30am 0.7 -1.2 0.4 98 0.1 CALM 0 0 0 0 1022.8 1022.8 0.0
04/04:00am 0.7 -1.2 0.4 98 0.1 CALM 0 0 0 0 1023.1 1023.2 0.0
04/03:30am 0.6 -1.3 0.3 98 0.1 CALM 0 0 0 0 1023.4 1023.5 0.0
04/03:00am 1.1 -0.8 0.8 98 0.1 CALM 0 0 0 0 1023.8 1023.9 0.0
04/02:46am 1.5 -0.3 1.2 98 0.1 CALM 0 0 0 0 1023.9 1024.0 0.0
04/02:40am 1.9 0.2 1.6 98 0.1 CALM 0 0 0 0 1023.7 1023.8 0.0
04/02:30am 1.7 -0.1 1.4 98 0.1 CALM 0 0 0 0 1023.9 1024.0 0.0
04/02:00am 2.4 0.7 2.1 98 0.1 CALM 0 0 0 0 1024.3 1024.4 0.0
04/01:48am 2.5 0.9 2.2 98 0.1 CALM 0 0 0 0 1024.1 1024.2 0.0
04/01:43am 2.3 0.6 2.0 98 0.1 CALM 0 0 0 0 1024.2 1024.3 0.0
04/01:30am 2.2 0.5 1.9 98 0.1 CALM 0 0 0 0 1024.2 1024.3 0.0
04/01:23am 2.0 0.3 1.7 98 0.1 CALM 0 0 0 0 1024.3 1024.4 0.0
04/01:00am 2.2 0.5 1.9 98 0.1 CALM 0 0 0 0 1024.3 1024.4 0.0
04/12:30am 2.8 1.2 2.5 98 0.1 CALM 0 0 0 0 1024.9 1025.0 0.0
04/12:17am 2.7 1.1 2.4 98 0.1 CALM 0 0 0 0 1024.9 1025.0 0.0
04/12:00am 3.2 1.7 2.9 98 0.1 CALM 0 0 0 0 1025.1 1025.2 0.0
 
Date/Time
EST
Tmp

°C
App
Tmp
°C
Dew
Point
°C
Rel
Hum
%
Delta-T

°C
Wind Press
QNH
hPa
Press
MSL
hPa
Rain
since
9 am
mm
Dir
 
Spd
km/h
Gust
km/h
Spd
kts
Gust
kts
03/11:33pm 3.5 1.7 3.2 98 0.1 NNW 2 7 1 4 1025.4 1025.5 0.0
03/11:30pm 3.4 1.9 3.1 98 0.1 CALM 0 0 0 0 1025.4 1025.5 0.0
03/11:00pm 3.7 2.2 3.1 96 0.2 CALM 0 0 0 0 1025.4 1025.5 0.0
03/10:30pm 3.9 2.5 3.6 98 0.1 CALM 0 0 0 0 1025.7 1025.8 0.0
03/10:25pm 4.3 3.0 3.9 97 0.2 CALM 0 0 0 0 1025.7 1025.8 0.0
03/10:12pm 4.1 2.7 3.4 95 0.3 CALM 0 0 0 0 1025.8 1025.9 0.0
03/10:00pm 5.0 3.8 4.7 98 0.1 CALM 0 0 0 0 1025.7 1025.8 0.0
03/09:30pm 4.9 3.7 4.5 97 0.2 CALM 0 0 0 0 1025.7 1025.8 0.0
03/09:00pm 4.7 2.1 4.1 96 0.3 NW 7 7 4 4 1025.7 1025.8 0.0
03/08:30pm 4.8 3.4 3.8 93 0.4 CALM 0 0 0 0 1025.8 1025.9 0.0
03/08:00pm 5.1 3.7 3.8 91 0.5 CALM 0 0 0 0 1025.8 1025.9 0.0
03/07:30pm 7.1 4.6 4.6 84 1.1 WSW 7 9 4 5 1025.6 1025.7 0.0
03/07:00pm 8.4 5.6 5.3 81 1.4 SSW 9 13 5 7 1025.6 1025.7 0.0
03/06:30pm 7.5 5.5 4.3 80 1.4 WSW 4 7 2 4 1025.4 1025.5 0.0
03/06:00pm 8.9 7.7 4.7 75 1.9 CALM 0 0 0 0 1025.0 1025.1 0.0
03/05:30pm 10.2 9.0 4.6 68 2.5 CALM 0 0 0 0 1024.8 1024.9 0.0
03/05:00pm 11.8 9.9 4.8 62 3.2 NNE 4 6 2 3 1024.7 1024.8 0.0
03/04:30pm 13.5 11.1 4.4 54 4.2 NNE 6 7 3 4 1024.7 1024.8 0.0
03/04:00pm 14.3 11.8 4.0 50 4.7 NE 6 9 3 5 1024.7 1024.8 0.0
03/03:30pm 14.9 12.8 4.0 48 5.0 NE 4 11 2 6 1024.6 1024.7 0.0
03/03:00pm 14.6 12.0 3.4 47 5.0 E 6 13 3 7 1024.5 1024.6 0.0
03/02:30pm 15.3 13.3 4.4 48 5.1 SSW 4 9 2 5 1024.6 1024.7 0.0
03/02:00pm 14.8 12.1 3.9 48 5.0 SW 7 11 4 6 1024.6 1024.7 0.0
03/01:30pm 14.7 12.1 4.1 49 4.9 SW 7 11 4 6 1024.9 1025.0 0.0
03/01:00pm 14.2 10.4 3.7 49 4.7 S 13 19 7 10 1025.6 1025.7 0.0
03/12:30pm 13.9 10.4 3.4 49 4.7 SSW 11 19 6 10 1026.0 1026.1 0.0
03/12:00pm 14.0 9.8 3.8 50 4.6 SSW 15 22 8 12 1026.3 1026.4 0.0
03/11:30am 13.7 9.4 3.5 50 4.6 S 15 26 8 14 1026.7 1026.8 0.0
03/11:00am 13.3 9.9 4.2 54 4.1 SSE 11 19 6 10 1026.9 1027.0 0.0
03/10:30am 11.4 8.8 4.2 61 3.2 SW 7 11 4 6 1027.2 1027.3 0.0
03/10:00am 10.3 8.9 3.3 62 3.0 CALM 0 6 0 3 1027.6 1027.7 0.0
03/09:30am 8.1 6.8 3.9 75 1.8 CALM 0 0 0 0 1027.4 1027.5 0.0
03/09:00am 7.7 6.4 3.9 77 1.6 CALM 0 0 0 0 1027.1 1027.2 0.2
03/08:30am 5.2 3.7 3.2 87 0.8 CALM 0 0 0 0 1026.8 1026.9 0.2
03/08:00am 3.8 1.2 3.4 97 0.2 ENE 6 9 3 5 1026.7 1026.8 0.2
03/07:30am 1.7 -1.4 1.4 98 0.1 ENE 7 9 4 5 1026.6 1026.7 0.2
03/07:00am 1.1 -0.8 0.7 97 0.1 CALM 0 0 0 0 1026.3 1026.4 0.2
03/06:55am 1.4 -0.4 1.1 98 0.1 CALM 0 0 0 0 1026.3 1026.4 0.2
03/06:38am 1.8 0.0 1.5 98 0.1 CALM 0 0 0 0 1026.1 1026.2 0.2
03/06:30am 1.5 -0.3 1.2 98 0.1 CALM 0 0 0 0 1026.0 1026.1 0.2
03/06:00am 1.9 0.1 1.5 97 0.2 CALM 0 0 0 0 1025.7 1025.8 0.2
03/05:30am 1.3 -0.7 0.1 92 0.4 CALM 0 0 0 0 1025.5 1025.6 0.2
03/05:00am 2.2 0.0 1.3 94 0.3 SE 2 7 1 4 1025.2 1025.3 0.2
03/04:30am 2.4 0.6 1.2 92 0.5 CALM 0 4 0 2 1025.0 1025.1 0.2
03/04:00am 2.5 0.7 1.2 91 0.5 CALM 0 0 0 0 1024.7 1024.8 0.2
03/03:30am 2.6 0.8 1.1 90 0.6 CALM 0 0 0 0 1024.5 1024.6 0.2
03/03:00am 2.8 -0.1 1.3 90 0.6 NNW 6 7 3 4 1024.5 1024.6 0.2
03/02:30am 3.3 0.3 1.0 85 0.9 WNW 6 7 3 4 1024.4 1024.5 0.2
03/02:00am 3.8 0.7 1.2 83 1.0 WSW 7 9 4 5 1024.5 1024.6 0.2
03/01:30am 4.3 2.7 2.2 86 0.8 CALM 0 0 0 0 1024.6 1024.7 0.2
03/01:00am 5.7 4.1 2.2 78 1.4 CALM 0 6 0 3 1024.4 1024.5 0.2
03/12:30am 6.1 3.1 1.8 74 1.7 SW 7 9 4 5 1024.4 1024.5 0.2
03/12:00am 7.3 3.9 2.0 69 2.2 SW 9 13 5 7 1024.4 1024.5 0.2
 
Date/Time
EST
Tmp

°C
App
Tmp
°C
Dew
Point
°C
Rel
Hum
%
Delta-T

°C
Wind Press
QNH
hPa
Press
MSL
hPa
Rain
since
9 am
mm
Dir
 
Spd
km/h
Gust
km/h
Spd
kts
Gust
kts
02/11:30pm 5.7 2.6 1.4 74 1.7 SW 7 9 4 5 1024.4 1024.5 0.2
02/11:00pm 8.3 5.6 2.5 67 2.4 SW 6 9 3 5 1024.4 1024.5 0.2
02/10:30pm 8.1 4.4 2.6 68 2.3 WSW 11 13 6 7 1024.2 1024.3 0.2
02/10:00pm 8.7 5.1 2.7 66 2.5 SW 11 13 6 7 1023.9 1024.0 0.2
02/09:30pm 9.2 5.6 2.8 64 2.7 SW 11 17 6 9 1023.7 1023.8 0.2
02/09:00pm 10.2 6.6 3.0 61 3.1 SSW 11 19 6 10 1023.2 1023.3 0.2
02/08:30pm 9.7 6.0 2.3 60 3.1 SSW 11 15 6 8 1022.8 1022.8 0.2
02/08:00pm 10.9 6.4 2.2 55 3.7 WSW 15 22 8 12 1022.1 1022.1 0.2
02/07:30pm 12.2 4.8 2.1 50 4.4 SW 30 46 16 25 1021.9 1021.9 0.2
02/07:27pm 12.4 5.5 2.3 50 4.4 SW 28 46 15 25 1021.9 1021.9 0.2
02/07:00pm 12.3 7.0 1.6 48 4.5 SW 19 28 10 15 1021.4 1021.4 0.2
02/06:30pm 12.9 7.5 2.2 48 4.7 WSW 20 32 11 17 1021.0 1021.0 0.2
02/06:00pm 12.8 7.6 3.7 54 4.1 SW 20 26 11 14 1020.6 1020.6 0.2
02/05:30pm 13.5 9.8 4.6 55 4.1 WSW 13 20 7 11 1020.0 1020.0 0.2
02/05:00pm 14.3 9.9 4.9 53 4.4 WSW 17 24 9 13 1019.4 1019.4 0.0
02/04:30pm 14.6 10.6 5.1 53 4.5 WSW 15 19 8 10 1018.4 1018.4 0.0
02/04:00pm 15.8 10.8 4.8 48 5.2 WSW 20 33 11 18 1018.1 1018.1 0.0
02/03:30pm 15.9 10.0 4.0 45 5.5 WSW 24 39 13 21 1017.9 1017.9 0.0
02/03:00pm 16.4 10.5 3.8 43 5.8 W 24 41 13 22 1017.8 1017.8 0.0
02/02:30pm 16.7 11.7 3.7 42 6.0 W 19 28 10 15 1017.8 1017.8 0.0
02/02:00pm 16.8 11.1 4.8 45 5.7 SW 24 39 13 21 1018.0 1018.0 0.0
02/01:30pm 16.7 11.2 4.1 43 5.9 W 22 35 12 19 1017.9 1017.9 0.0
02/01:00pm 16.5 11.4 4.2 44 5.7 SW 20 32 11 17 1018.3 1018.3 0.0
02/12:30pm 16.6 11.0 5.6 48 5.3 SW 24 32 13 17 1018.5 1018.5 0.0
02/12:00pm 15.1 12.3 5.0 51 4.7 SW 9 15 5 8 1018.9 1018.9 0.0
02/11:30am 14.0 10.8 5.1 55 4.2 W 11 17 6 9 1019.5 1019.5 0.0
02/11:00am 12.0 9.9 6.5 69 2.6 WNW 7 11 4 6 1020.2 1020.2 0.0
02/10:30am 10.4 7.4 7.8 84 1.3 NW 13 20 7 11 1020.6 1020.6 0.0
02/10:00am 7.7 5.8 6.8 94 0.4 N 6 7 3 4 1020.8 1020.8 0.0
02/09:30am 5.8 4.4 5.5 98 0.1 N 2 7 1 4 1021.0 1021.0 0.0
02/09:00am 4.5 2.5 4.2 98 0.1 NNE 4 7 2 4 1021.1 1021.1 0.2
02/08:30am 3.6 1.0 3.3 98 0.1 NW 6 7 3 4 1021.0 1021.0 0.2
02/08:08am 3.5 2.0 3.2 98 0.1 CALM 0 0 0 0 1021.2 1021.2 0.2
02/08:07am 3.5 2.0 3.2 98 0.1 CALM 0 0 0 0 1021.3 1021.3 0.2
02/08:00am 3.2 0.9 2.9 98 0.1 NW 4 9 2 5 1021.2 1021.2 0.2
02/07:41am 2.7 -0.2 2.4 98 0.1 NW 7 11 4 6 1021.1 1021.1 0.2
02/07:30am 2.4 0.0 2.1 98 0.1 NNW 4 7 2 4 1021.1 1021.1 0.2
02/07:00am 1.9 -0.2 1.6 98 0.1 E 2 7 1 4 1021.0 1021.0 0.2
02/06:30am 1.7 -1.2 1.4 98 0.1 NNW 6 7 3 4 1020.9 1020.9 0.2
02/06:00am 2.1 -0.4 1.8 98 0.1 WNW 4 7 2 4 1020.6 1020.6 0.2
02/05:30am 2.3 0.6 2.0 98 0.1 CALM 0 4 0 2 1020.8 1020.8 0.2
02/05:00am 2.3 -0.5 2.0 98 0.1 NNE 6 7 3 4 1020.6 1020.6 0.2
02/04:30am 2.4 0.7 2.1 98 0.1 CALM 0 0 0 0 1020.4 1020.4 0.2
02/04:00am 2.8 -0.1 2.5 98 0.1 N 7 11 4 6 1020.9 1020.9 0.2
02/03:30am 2.6 1.0 2.3 98 0.1 CALM 0 6 0 3 1020.9 1020.9 0.2
02/03:00am 3.0 0.3 2.7 98 0.1 ESE 6 9 3 5 1021.1 1021.1 0.0

Latest Capital City Observations: Canberra | Sydney | Melbourne | Brisbane | Adelaide | Perth | Hobart | Darwin

Other Formats:

Comma delimited format used in spreadsheet applications
http://www.bom.gov.au/fwo/IDN60901/IDN60901.95753.axf

JavaScript Object Notation format (JSON) in row-major order
http://www.bom.gov.au/fwo/IDN60901/IDN60901.95753.json